Year,Month,Day,Hour,Minute,Value (Times are PST for temperature in C)
2012,08,26,00,00,13.80
2012,08,26,00,01,13.80
2012,08,26,00,02,13.80
2012,08,26,00,03,13.80
2012,08,26,00,04,13.80
2012,08,26,00,05,13.80
2012,08,26,00,06,13.80
2012,08,26,00,07,13.70
2012,08,26,00,08,13.70
2012,08,26,00,09,13.70
2012,08,26,00,10,13.70
2012,08,26,00,11,13.70
2012,08,26,00,12,13.70
2012,08,26,00,13,13.60
2012,08,26,00,14,13.60
2012,08,26,00,15,13.60
2012,08,26,00,16,13.60
2012,08,26,00,17,13.50
2012,08,26,00,18,13.50
2012,08,26,00,19,13.50
2012,08,26,00,20,13.50
2012,08,26,00,21,13.40
2012,08,26,00,22,13.40
2012,08,26,00,23,13.40
2012,08,26,00,24,13.40
2012,08,26,00,25,13.30
2012,08,26,00,26,13.30
2012,08,26,00,27,13.30
2012,08,26,00,28,13.30
2012,08,26,00,29,13.30
2012,08,26,00,30,13.30
2012,08,26,00,31,13.30
2012,08,26,00,32,13.30
2012,08,26,00,33,13.30
2012,08,26,00,34,13.30
2012,08,26,00,35,13.30
2012,08,26,00,36,13.30
2012,08,26,00,37,13.30
2012,08,26,00,38,13.30
2012,08,26,00,39,13.30
2012,08,26,00,40,13.30
2012,08,26,00,41,13.30
2012,08,26,00,42,13.30
2012,08,26,00,43,13.30
2012,08,26,00,44,13.30
2012,08,26,00,45,13.30
2012,08,26,00,46,13.30
2012,08,26,00,47,13.30
2012,08,26,00,48,13.30
2012,08,26,00,49,13.30
2012,08,26,00,50,13.30
2012,08,26,00,51,13.20
2012,08,26,00,52,13.20
2012,08,26,00,53,13.20
2012,08,26,00,54,13.20
2012,08,26,00,55,13.20
2012,08,26,00,56,13.10
2012,08,26,00,57,13.10
2012,08,26,00,58,13.10
2012,08,26,00,59,13.10
2012,08,26,01,00,13.00
2012,08,26,01,01,13.00
2012,08,26,01,02,13.00
2012,08,26,01,03,13.00
2012,08,26,01,04,12.90
2012,08,26,01,05,12.90
2012,08,26,01,06,12.90
2012,08,26,01,07,12.90
2012,08,26,01,08,12.90
2012,08,26,01,09,12.90
2012,08,26,01,10,12.90
2012,08,26,01,11,12.90
2012,08,26,01,12,12.90
2012,08,26,01,13,12.90
2012,08,26,01,14,12.90
2012,08,26,01,15,12.90
2012,08,26,01,16,12.90
2012,08,26,01,17,12.90
2012,08,26,01,18,12.90
2012,08,26,01,19,12.90
2012,08,26,01,20,12.90
2012,08,26,01,21,12.90
2012,08,26,01,22,12.80
2012,08,26,01,23,12.80
2012,08,26,01,24,12.80
2012,08,26,01,25,12.80
2012,08,26,01,26,12.80
2012,08,26,01,27,12.80
2012,08,26,01,28,12.80
2012,08,26,01,29,12.80
2012,08,26,01,30,12.80
2012,08,26,01,31,12.80
2012,08,26,01,32,12.80
2012,08,26,01,33,12.80
2012,08,26,01,34,12.80
2012,08,26,01,35,12.80
2012,08,26,01,36,12.80
2012,08,26,01,37,12.70
2012,08,26,01,38,12.70
2012,08,26,01,39,12.70
2012,08,26,01,40,12.70
2012,08,26,01,41,12.70
2012,08,26,01,42,12.70
2012,08,26,01,43,12.70
2012,08,26,01,44,12.70
2012,08,26,01,45,12.70
2012,08,26,01,46,12.70
2012,08,26,01,47,12.60
2012,08,26,01,48,12.60
2012,08,26,01,49,12.60
2012,08,26,01,50,12.60
2012,08,26,01,51,12.60
2012,08,26,01,52,12.60
2012,08,26,01,53,12.50
2012,08,26,01,54,12.50
2012,08,26,01,55,12.50
2012,08,26,01,56,12.50
2012,08,26,01,57,12.40
2012,08,26,01,58,12.40
2012,08,26,01,59,12.40
2012,08,26,02,00,12.40
2012,08,26,02,01,12.40
2012,08,26,02,02,12.40
2012,08,26,02,03,12.40
2012,08,26,02,04,12.40
2012,08,26,02,05,12.40
2012,08,26,02,06,12.40
2012,08,26,02,07,12.40
2012,08,26,02,08,12.40
2012,08,26,02,09,12.40
2012,08,26,02,10,12.40
2012,08,26,02,11,12.40
2012,08,26,02,12,12.40
2012,08,26,02,13,12.40
2012,08,26,02,14,12.40
2012,08,26,02,15,12.40
2012,08,26,02,16,12.40
2012,08,26,02,17,12.40
2012,08,26,02,18,12.40
2012,08,26,02,19,12.40
2012,08,26,02,20,12.40
2012,08,26,02,21,12.40
2012,08,26,02,22,12.40
2012,08,26,02,23,12.40
2012,08,26,02,24,12.40
2012,08,26,02,25,12.40
2012,08,26,02,26,12.40
2012,08,26,02,27,12.40
2012,08,26,02,28,12.40
2012,08,26,02,29,12.40
2012,08,26,02,30,12.40
2012,08,26,02,31,12.40
2012,08,26,02,32,12.40
2012,08,26,02,33,12.40
2012,08,26,02,34,12.40
2012,08,26,02,35,12.40
2012,08,26,02,36,12.40
2012,08,26,02,37,12.40
2012,08,26,02,38,12.50
2012,08,26,02,39,12.50
2012,08,26,02,40,12.50
2012,08,26,02,41,12.50
2012,08,26,02,42,12.50
2012,08,26,02,43,12.50
2012,08,26,02,44,12.50
2012,08,26,02,45,12.60
2012,08,26,02,46,12.60
2012,08,26,02,47,12.60
2012,08,26,02,48,12.60
2012,08,26,02,49,12.60
2012,08,26,02,50,12.60
2012,08,26,02,51,12.60
2012,08,26,02,52,12.60
2012,08,26,02,53,12.70
2012,08,26,02,54,12.70
2012,08,26,02,55,12.70
2012,08,26,02,56,12.70
2012,08,26,02,57,12.70
2012,08,26,02,58,12.70
2012,08,26,02,59,12.70
2012,08,26,03,00,12.70
2012,08,26,03,01,12.70
2012,08,26,03,02,12.70
2012,08,26,03,03,12.70
2012,08,26,03,04,12.70
2012,08,26,03,05,12.70
2012,08,26,03,06,12.70
2012,08,26,03,07,12.70
2012,08,26,03,08,12.70
2012,08,26,03,09,12.70
2012,08,26,03,10,12.70
2012,08,26,03,11,12.70
2012,08,26,03,12,12.70
2012,08,26,03,13,12.70
2012,08,26,03,14,12.70
2012,08,26,03,15,12.70
2012,08,26,03,16,12.70
2012,08,26,03,17,12.70
2012,08,26,03,18,12.70
2012,08,26,03,19,12.70
2012,08,26,03,20,12.70
2012,08,26,03,21,12.70
2012,08,26,03,22,12.70
2012,08,26,03,23,12.70
2012,08,26,03,24,12.70
2012,08,26,03,25,12.70
2012,08,26,03,26,12.70
2012,08,26,03,27,12.60
2012,08,26,03,28,12.60
2012,08,26,03,29,12.60
2012,08,26,03,30,12.60
2012,08,26,03,31,12.60
2012,08,26,03,32,12.60
2012,08,26,03,33,12.60
2012,08,26,03,34,12.60
2012,08,26,03,35,12.60
2012,08,26,03,36,12.60
2012,08,26,03,37,12.60
2012,08,26,03,38,12.60
2012,08,26,03,39,12.60
2012,08,26,03,40,12.60
2012,08,26,03,41,12.60
2012,08,26,03,42,12.60
2012,08,26,03,43,12.60
2012,08,26,03,44,12.60
2012,08,26,03,45,12.60
2012,08,26,03,46,12.60
2012,08,26,03,47,12.60
2012,08,26,03,48,12.60
2012,08,26,03,49,12.50
2012,08,26,03,50,12.50
2012,08,26,03,51,12.50
2012,08,26,03,52,12.50
2012,08,26,03,53,12.50
2012,08,26,03,54,12.50
2012,08,26,03,55,12.50
2012,08,26,03,56,12.50
2012,08,26,03,57,12.50
2012,08,26,03,58,12.40
2012,08,26,03,59,12.40
2012,08,26,04,00,12.40
2012,08,26,04,01,12.40
2012,08,26,04,02,12.40
2012,08,26,04,03,12.40
2012,08,26,04,04,12.40
2012,08,26,04,05,12.40
2012,08,26,04,06,12.40
2012,08,26,04,07,12.30
2012,08,26,04,08,12.30
2012,08,26,04,09,12.30
2012,08,26,04,10,12.30
2012,08,26,04,11,12.30
2012,08,26,04,12,12.30
2012,08,26,04,13,12.30
2012,08,26,04,14,12.30
2012,08,26,04,15,12.30
2012,08,26,04,16,12.20
2012,08,26,04,17,12.20
2012,08,26,04,18,12.20
2012,08,26,04,19,12.20
2012,08,26,04,20,12.20
2012,08,26,04,21,12.20
2012,08,26,04,22,12.20
2012,08,26,04,23,12.20
2012,08,26,04,24,12.20
2012,08,26,04,25,12.20
2012,08,26,04,26,12.20
2012,08,26,04,27,12.20
2012,08,26,04,28,12.20
2012,08,26,04,29,12.10
2012,08,26,04,30,12.10
2012,08,26,04,31,12.10
2012,08,26,04,32,12.10
2012,08,26,04,33,12.10
2012,08,26,04,34,12.10
2012,08,26,04,35,12.10
2012,08,26,04,36,12.00
2012,08,26,04,37,12.00
2012,08,26,04,38,12.00
2012,08,26,04,39,12.00
2012,08,26,04,40,11.90
2012,08,26,04,41,11.90
2012,08,26,04,42,11.90
2012,08,26,04,43,11.90
2012,08,26,04,44,11.90
2012,08,26,04,45,11.90
2012,08,26,04,46,11.80
2012,08,26,04,47,11.80
2012,08,26,04,48,11.80
2012,08,26,04,49,11.80
2012,08,26,04,50,11.80
2012,08,26,04,51,11.80
2012,08,26,04,52,11.70
2012,08,26,04,53,11.70
2012,08,26,04,54,11.70
2012,08,26,04,55,11.70
2012,08,26,04,56,11.70
2012,08,26,04,57,11.70
2012,08,26,04,58,11.70
2012,08,26,04,59,11.70
2012,08,26,05,00,11.60
2012,08,26,05,01,11.60
2012,08,26,05,02,11.60
2012,08,26,05,03,11.60
2012,08,26,05,04,11.60
2012,08,26,05,05,11.50
2012,08,26,05,06,11.50
2012,08,26,05,07,11.50
2012,08,26,05,08,11.50
2012,08,26,05,09,11.50
2012,08,26,05,10,11.50
2012,08,26,05,11,11.50
2012,08,26,05,12,11.50
2012,08,26,05,13,11.40
2012,08,26,05,14,11.40
2012,08,26,05,15,11.40
2012,08,26,05,16,11.40
2012,08,26,05,17,11.40
2012,08,26,05,18,11.40
2012,08,26,05,19,11.40
2012,08,26,05,20,11.40
2012,08,26,05,21,11.40
2012,08,26,05,22,11.40
2012,08,26,05,23,11.40
2012,08,26,05,24,11.40
2012,08,26,05,25,11.40
2012,08,26,05,26,11.40
2012,08,26,05,27,11.40
2012,08,26,05,28,11.40
2012,08,26,05,29,11.40
2012,08,26,05,30,11.40
2012,08,26,05,31,11.30
2012,08,26,05,32,11.30
2012,08,26,05,33,11.30
2012,08,26,05,34,11.30
2012,08,26,05,35,11.30
2012,08,26,05,36,11.30
2012,08,26,05,37,11.30
2012,08,26,05,38,11.30
2012,08,26,05,39,11.30
2012,08,26,05,40,11.30
2012,08,26,05,41,11.30
2012,08,26,05,42,11.30
2012,08,26,05,43,11.30
2012,08,26,05,44,11.20
2012,08,26,05,45,11.20
2012,08,26,05,46,11.20
2012,08,26,05,47,11.20
2012,08,26,05,48,11.20
2012,08,26,05,49,11.20
2012,08,26,05,50,11.20
2012,08,26,05,51,11.20
2012,08,26,05,52,11.10
2012,08,26,05,53,11.10
2012,08,26,05,54,11.10
2012,08,26,05,55,11.10
2012,08,26,05,56,11.10
2012,08,26,05,57,11.10
2012,08,26,05,58,11.10
2012,08,26,05,59,11.00
2012,08,26,06,00,11.00
2012,08,26,06,01,11.00
2012,08,26,06,02,11.00
2012,08,26,06,03,11.00
2012,08,26,06,04,11.00
2012,08,26,06,05,11.00
2012,08,26,06,06,10.90
2012,08,26,06,07,11.00
2012,08,26,06,08,10.90
2012,08,26,06,09,10.90
2012,08,26,06,10,10.90
2012,08,26,06,11,10.90
2012,08,26,06,12,10.90
2012,08,26,06,13,10.90
2012,08,26,06,14,10.90
2012,08,26,06,15,10.90
2012,08,26,06,16,10.90
2012,08,26,06,17,10.90
2012,08,26,06,18,10.80
2012,08,26,06,19,10.80
2012,08,26,06,20,10.80
2012,08,26,06,21,10.80
2012,08,26,06,22,10.80
2012,08,26,06,23,10.80
2012,08,26,06,24,10.80
2012,08,26,06,25,10.80
2012,08,26,06,26,10.90
2012,08,26,06,27,10.90
2012,08,26,06,28,10.90
2012,08,26,06,29,10.90
2012,08,26,06,30,10.90
2012,08,26,06,31,10.90
2012,08,26,06,32,10.90
2012,08,26,06,33,10.90
2012,08,26,06,34,10.90
2012,08,26,06,35,10.90
2012,08,26,06,36,10.90
2012,08,26,06,37,10.90
2012,08,26,06,38,10.90
2012,08,26,06,39,10.90
2012,08,26,06,40,10.90
2012,08,26,06,41,10.90
2012,08,26,06,42,10.90
2012,08,26,06,43,10.90
2012,08,26,06,44,10.90
2012,08,26,06,45,10.90
2012,08,26,06,46,10.90
2012,08,26,06,47,11.00
2012,08,26,06,48,11.00
2012,08,26,06,49,11.00
2012,08,26,06,50,11.00
2012,08,26,06,51,11.00
2012,08,26,06,52,11.00
2012,08,26,06,53,11.10
2012,08,26,06,54,11.10
2012,08,26,06,55,11.10
2012,08,26,06,56,11.10
2012,08,26,06,57,11.10
2012,08,26,06,58,11.10
2012,08,26,06,59,11.10
2012,08,26,07,00,11.10
2012,08,26,07,01,11.10
2012,08,26,07,02,11.10
2012,08,26,07,03,11.10
2012,08,26,07,04,11.10
2012,08,26,07,05,11.20
2012,08,26,07,06,11.20
2012,08,26,07,07,11.20
2012,08,26,07,08,11.20
2012,08,26,07,09,11.20
2012,08,26,07,10,11.20
2012,08,26,07,11,11.30
2012,08,26,07,12,11.30
2012,08,26,07,13,11.30
2012,08,26,07,14,11.30
2012,08,26,07,15,11.30
2012,08,26,07,16,11.40
2012,08,26,07,17,11.40
2012,08,26,07,18,11.40
2012,08,26,07,19,11.50
2012,08,26,07,20,11.50
2012,08,26,07,21,11.50
2012,08,26,07,22,11.50
2012,08,26,07,23,11.60
2012,08,26,07,24,11.60
2012,08,26,07,25,11.60
2012,08,26,07,26,11.60
2012,08,26,07,27,11.70
2012,08,26,07,28,11.70
2012,08,26,07,29,11.70
2012,08,26,07,30,11.70
2012,08,26,07,31,11.80
2012,08,26,07,32,11.80
2012,08,26,07,33,11.80
2012,08,26,07,34,11.80
2012,08,26,07,35,11.90
2012,08,26,07,36,11.90
2012,08,26,07,37,11.90
2012,08,26,07,38,12.00
2012,08,26,07,39,12.00
2012,08,26,07,40,12.10
2012,08,26,07,41,12.10
2012,08,26,07,42,12.20
2012,08,26,07,43,12.20
2012,08,26,07,44,12.20
2012,08,26,07,45,12.30
2012,08,26,07,46,12.30
2012,08,26,07,47,12.30
2012,08,26,07,48,12.40
2012,08,26,07,49,12.40
2012,08,26,07,50,12.40
2012,08,26,07,51,12.50
2012,08,26,07,52,12.50
2012,08,26,07,53,12.60
2012,08,26,07,54,12.60
2012,08,26,07,55,12.60
2012,08,26,07,56,12.70
2012,08,26,07,57,12.70
2012,08,26,07,58,12.70
2012,08,26,07,59,12.80
2012,08,26,08,00,12.80
2012,08,26,08,01,12.80
2012,08,26,08,02,12.80
2012,08,26,08,03,12.90
2012,08,26,08,04,12.90
2012,08,26,08,05,12.90
2012,08,26,08,06,13.00
2012,08,26,08,07,13.00
2012,08,26,08,08,13.10
2012,08,26,08,09,13.10
2012,08,26,08,10,13.10
2012,08,26,08,11,13.10
2012,08,26,08,12,13.20
2012,08,26,08,13,13.20
2012,08,26,08,14,13.20
2012,08,26,08,15,13.30
2012,08,26,08,16,13.30
2012,08,26,08,17,13.30
2012,08,26,08,18,13.30
2012,08,26,08,19,13.40
2012,08,26,08,20,13.40
2012,08,26,08,21,13.50
2012,08,26,08,22,13.50
2012,08,26,08,23,13.60
2012,08,26,08,24,13.60
2012,08,26,08,25,13.70
2012,08,26,08,26,13.70
2012,08,26,08,27,13.70
2012,08,26,08,28,13.80
2012,08,26,08,29,13.80
2012,08,26,08,30,13.80
2012,08,26,08,31,13.80
2012,08,26,08,32,13.80
2012,08,26,08,33,13.90
2012,08,26,08,34,13.90
2012,08,26,08,35,13.90
2012,08,26,08,36,14.00
2012,08,26,08,37,14.00
2012,08,26,08,38,14.10
2012,08,26,08,39,14.10
2012,08,26,08,40,14.10
2012,08,26,08,41,14.20
2012,08,26,08,42,14.20
2012,08,26,08,43,14.20
2012,08,26,08,44,14.30
2012,08,26,08,45,14.30
2012,08,26,08,46,14.30
2012,08,26,08,47,14.40
2012,08,26,08,48,14.40
2012,08,26,08,49,14.50
2012,08,26,08,50,14.50
2012,08,26,08,51,14.60
2012,08,26,08,52,14.60
2012,08,26,08,53,14.70
2012,08,26,08,54,14.70
2012,08,26,08,55,14.80
2012,08,26,08,56,14.80
2012,08,26,08,57,14.80
2012,08,26,08,58,14.80
2012,08,26,08,59,14.90
2012,08,26,09,00,14.90
2012,08,26,09,01,15.00
2012,08,26,09,02,15.00
2012,08,26,09,03,15.00
2012,08,26,09,04,15.10
2012,08,26,09,05,15.10
2012,08,26,09,06,15.10
2012,08,26,09,07,15.20
2012,08,26,09,08,15.20
2012,08,26,09,09,15.20
2012,08,26,09,10,15.20
2012,08,26,09,11,15.30
2012,08,26,09,12,15.30
2012,08,26,09,13,15.30
2012,08,26,09,14,15.30
2012,08,26,09,15,15.30
2012,08,26,09,16,15.30
2012,08,26,09,17,15.30
2012,08,26,09,18,15.30
2012,08,26,09,19,15.40
2012,08,26,09,20,15.40
2012,08,26,09,21,15.40
2012,08,26,09,22,15.40
2012,08,26,09,23,15.40
2012,08,26,09,24,15.40
2012,08,26,09,25,15.40
2012,08,26,09,26,15.40
2012,08,26,09,27,15.50
2012,08,26,09,28,15.50
2012,08,26,09,29,15.50
2012,08,26,09,30,15.50
2012,08,26,09,31,15.50
2012,08,26,09,32,15.50
2012,08,26,09,33,15.50
2012,08,26,09,34,15.50
2012,08,26,09,35,15.50
2012,08,26,09,36,15.50
2012,08,26,09,37,15.50
2012,08,26,09,38,15.50
2012,08,26,09,39,15.50
2012,08,26,09,40,15.50
2012,08,26,09,41,15.50
2012,08,26,09,42,15.50
2012,08,26,09,43,15.50
2012,08,26,09,44,15.50
2012,08,26,09,45,15.50
2012,08,26,09,46,15.50
2012,08,26,09,47,15.50
2012,08,26,09,48,15.50
2012,08,26,09,49,15.50
2012,08,26,09,50,15.50
2012,08,26,09,51,15.60
2012,08,26,09,52,15.60
2012,08,26,09,53,15.60
2012,08,26,09,54,15.60
2012,08,26,09,55,15.60
2012,08,26,09,56,15.70
2012,08,26,09,57,15.70
2012,08,26,09,58,15.70
2012,08,26,09,59,15.70
2012,08,26,10,00,15.70
2012,08,26,10,01,15.70
2012,08,26,10,02,15.70
2012,08,26,10,03,15.70
2012,08,26,10,04,15.70
2012,08,26,10,05,15.70
2012,08,26,10,06,15.70
2012,08,26,10,07,15.70
2012,08,26,10,08,15.70
2012,08,26,10,09,15.70
2012,08,26,10,10,15.80
2012,08,26,10,11,15.80
2012,08,26,10,12,15.90
2012,08,26,10,13,15.90
2012,08,26,10,14,16.00
2012,08,26,10,15,16.00
2012,08,26,10,16,16.10
2012,08,26,10,17,16.20
2012,08,26,10,18,16.20
2012,08,26,10,19,16.20
2012,08,26,10,20,16.30
2012,08,26,10,21,16.30
2012,08,26,10,22,16.40
2012,08,26,10,23,16.40
2012,08,26,10,24,16.40
2012,08,26,10,25,16.50
2012,08,26,10,26,16.60
2012,08,26,10,27,16.60
2012,08,26,10,28,16.70
2012,08,26,10,29,16.70
2012,08,26,10,30,16.70
2012,08,26,10,31,16.80
2012,08,26,10,32,16.80
2012,08,26,10,33,16.80
2012,08,26,10,34,16.80
2012,08,26,10,35,16.90
2012,08,26,10,36,16.90
2012,08,26,10,37,17.00
2012,08,26,10,38,17.10
2012,08,26,10,39,17.20
2012,08,26,10,40,17.30
2012,08,26,10,41,17.40
2012,08,26,10,42,17.40
2012,08,26,10,43,17.50
2012,08,26,10,44,17.50
2012,08,26,10,45,17.60
2012,08,26,10,46,17.60
2012,08,26,10,47,17.60
2012,08,26,10,48,17.70
2012,08,26,10,49,17.60
2012,08,26,10,50,17.60
2012,08,26,10,51,17.50
2012,08,26,10,52,17.40
2012,08,26,10,53,17.40
2012,08,26,10,54,17.30
2012,08,26,10,55,17.30
2012,08,26,10,56,17.30
2012,08,26,10,57,17.20
2012,08,26,10,58,17.10
2012,08,26,10,59,17.10
2012,08,26,11,00,17.00
2012,08,26,11,01,16.90
2012,08,26,11,02,16.80
2012,08,26,11,03,16.80
2012,08,26,11,04,16.80
2012,08,26,11,05,16.70
2012,08,26,11,06,16.70
2012,08,26,11,07,16.70
2012,08,26,11,08,16.70
2012,08,26,11,09,16.70
2012,08,26,11,10,16.70
2012,08,26,11,11,16.70
2012,08,26,11,12,16.70
2012,08,26,11,13,16.80
2012,08,26,11,14,16.80
2012,08,26,11,15,16.90
2012,08,26,11,16,16.90
2012,08,26,11,17,16.90
2012,08,26,11,18,16.80
2012,08,26,11,19,16.80
2012,08,26,11,20,16.80
2012,08,26,11,21,16.90
2012,08,26,11,22,16.90
2012,08,26,11,23,16.90
2012,08,26,11,24,16.80
2012,08,26,11,25,16.90
2012,08,26,11,26,16.90
2012,08,26,11,27,16.90
2012,08,26,11,28,16.90
2012,08,26,11,29,16.90
2012,08,26,11,30,17.00
2012,08,26,11,31,17.00
2012,08,26,11,32,17.00
2012,08,26,11,33,17.00
2012,08,26,11,34,17.00
2012,08,26,11,35,17.00
2012,08,26,11,36,17.00
2012,08,26,11,37,17.00
2012,08,26,11,38,17.00
2012,08,26,11,39,17.00
2012,08,26,11,40,17.00
2012,08,26,11,41,17.10
2012,08,26,11,42,17.10
2012,08,26,11,43,17.10
2012,08,26,11,44,17.10
2012,08,26,11,45,17.10
2012,08,26,11,46,17.10
2012,08,26,11,47,17.10
2012,08,26,11,48,17.10
2012,08,26,11,49,17.10
2012,08,26,11,50,17.10
2012,08,26,11,51,17.10
2012,08,26,11,52,17.10
2012,08,26,11,53,17.10
2012,08,26,11,54,17.10
2012,08,26,11,55,17.10
2012,08,26,11,56,17.10
2012,08,26,11,57,17.10
2012,08,26,11,58,17.10
2012,08,26,11,59,17.10
2012,08,26,12,00,17.10
2012,08,26,12,01,17.10
2012,08,26,12,02,17.10
2012,08,26,12,03,17.20
2012,08,26,12,04,17.20
2012,08,26,12,05,17.10
2012,08,26,12,06,17.10
2012,08,26,12,07,17.20
2012,08,26,12,08,17.10
2012,08,26,12,09,17.10
2012,08,26,12,10,17.10
2012,08,26,12,11,17.00
2012,08,26,12,12,16.90
2012,08,26,12,13,16.80
2012,08,26,12,14,16.80
2012,08,26,12,15,16.70
2012,08,26,12,16,16.60
2012,08,26,12,17,16.50
2012,08,26,12,18,16.50
2012,08,26,12,19,16.40
2012,08,26,12,20,16.30
2012,08,26,12,21,16.30
2012,08,26,12,22,16.30
2012,08,26,12,23,16.30
2012,08,26,12,24,16.30
2012,08,26,12,25,16.30
2012,08,26,12,26,16.30
2012,08,26,12,27,16.30
2012,08,26,12,28,16.20
2012,08,26,12,29,16.20
2012,08,26,12,30,16.20
2012,08,26,12,31,16.20
2012,08,26,12,32,16.20
2012,08,26,12,33,16.20
2012,08,26,12,34,16.20
2012,08,26,12,35,16.30
2012,08,26,12,36,16.30
2012,08,26,12,37,16.30
2012,08,26,12,38,16.40
2012,08,26,12,39,16.40
2012,08,26,12,40,16.50
2012,08,26,12,41,16.50
2012,08,26,12,42,16.60
2012,08,26,12,43,16.60
2012,08,26,12,44,16.70
2012,08,26,12,45,16.70
2012,08,26,12,46,16.70
2012,08,26,12,47,16.80
2012,08,26,12,48,16.80
2012,08,26,12,49,16.80
2012,08,26,12,50,16.90
2012,08,26,12,51,16.90
2012,08,26,12,52,16.90
2012,08,26,12,53,17.00
2012,08,26,12,54,17.00
2012,08,26,12,55,17.10
2012,08,26,12,56,17.20
2012,08,26,12,57,17.20
2012,08,26,12,58,17.30
2012,08,26,12,59,17.40
2012,08,26,13,00,17.40
2012,08,26,13,01,17.50
2012,08,26,13,02,17.60
2012,08,26,13,03,17.70
2012,08,26,13,04,17.80
2012,08,26,13,05,17.80
2012,08,26,13,06,17.90
2012,08,26,13,07,17.90
2012,08,26,13,08,18.00
2012,08,26,13,09,18.10
2012,08,26,13,10,18.10
2012,08,26,13,11,18.10
2012,08,26,13,12,18.20
2012,08,26,13,13,18.20
2012,08,26,13,14,18.20
2012,08,26,13,15,18.30
2012,08,26,13,16,18.30
2012,08,26,13,17,18.30
2012,08,26,13,18,18.40
2012,08,26,13,19,18.40
2012,08,26,13,20,18.40
2012,08,26,13,21,18.50
2012,08,26,13,22,18.50
2012,08,26,13,23,18.60
2012,08,26,13,24,18.60
2012,08,26,13,25,18.70
2012,08,26,13,26,18.70
2012,08,26,13,27,18.70
2012,08,26,13,28,18.80
2012,08,26,13,29,18.80
2012,08,26,13,30,18.80
2012,08,26,13,31,18.80
2012,08,26,13,32,18.80
2012,08,26,13,33,18.80
2012,08,26,13,34,18.80
2012,08,26,13,35,18.70
2012,08,26,13,36,18.70
2012,08,26,13,37,18.70
2012,08,26,13,38,18.70
2012,08,26,13,39,18.60
2012,08,26,13,40,18.60
2012,08,26,13,41,18.60
2012,08,26,13,42,18.60
2012,08,26,13,43,18.60
2012,08,26,13,44,18.60
2012,08,26,13,45,18.60
2012,08,26,13,46,18.60
2012,08,26,13,47,18.60
2012,08,26,13,48,18.60
2012,08,26,13,49,18.60
2012,08,26,13,50,18.60
2012,08,26,13,51,18.60
2012,08,26,13,52,18.60
2012,08,26,13,53,18.60
2012,08,26,13,54,18.60
2012,08,26,13,55,18.60
2012,08,26,13,56,18.60
2012,08,26,13,57,18.60
2012,08,26,13,58,18.60
2012,08,26,13,59,18.60
2012,08,26,14,00,18.60
2012,08,26,14,01,18.60
2012,08,26,14,02,18.60
2012,08,26,14,03,18.60
2012,08,26,14,04,18.60
2012,08,26,14,05,18.70
2012,08,26,14,06,18.70
2012,08,26,14,07,18.70
2012,08,26,14,08,18.70
2012,08,26,14,09,18.80
2012,08,26,14,10,18.80
2012,08,26,14,11,18.80
2012,08,26,14,12,18.80
2012,08,26,14,13,18.70
2012,08,26,14,14,18.70
2012,08,26,14,15,18.70
2012,08,26,14,16,18.70
2012,08,26,14,17,18.80
2012,08,26,14,18,18.80
2012,08,26,14,19,18.80
2012,08,26,14,20,18.80
2012,08,26,14,21,18.80
2012,08,26,14,22,18.80
2012,08,26,14,23,18.80
2012,08,26,14,24,18.80
2012,08,26,14,25,18.80
2012,08,26,14,26,18.80
2012,08,26,14,27,18.80
2012,08,26,14,28,18.80
2012,08,26,14,29,18.80
2012,08,26,14,30,18.90
2012,08,26,14,31,18.90
2012,08,26,14,32,18.90
2012,08,26,14,33,18.90
2012,08,26,14,34,18.90
2012,08,26,14,35,18.90
2012,08,26,14,36,18.90
2012,08,26,14,37,18.90
2012,08,26,14,38,18.90
2012,08,26,14,39,18.80
2012,08,26,14,40,18.80
2012,08,26,14,41,18.80
2012,08,26,14,42,18.90
2012,08,26,14,43,18.90
2012,08,26,14,44,18.90
2012,08,26,14,45,18.90
2012,08,26,14,46,18.90
2012,08,26,14,47,18.90
2012,08,26,14,48,18.90
2012,08,26,14,49,19.00
2012,08,26,14,50,19.00
2012,08,26,14,51,19.10
2012,08,26,14,52,19.10
2012,08,26,14,53,19.20
2012,08,26,14,54,19.20
2012,08,26,14,55,19.20
2012,08,26,14,56,19.30
2012,08,26,14,57,19.30
2012,08,26,14,58,19.30
2012,08,26,14,59,19.30
2012,08,26,15,00,19.40
2012,08,26,15,01,19.40
2012,08,26,15,02,19.40
2012,08,26,15,03,19.40
2012,08,26,15,04,19.30
2012,08,26,15,05,19.30
2012,08,26,15,06,19.30
2012,08,26,15,07,19.30
2012,08,26,15,08,19.30
2012,08,26,15,09,19.30
2012,08,26,15,10,19.30
2012,08,26,15,11,19.40
2012,08,26,15,12,19.40
2012,08,26,15,13,19.40
2012,08,26,15,14,19.40
2012,08,26,15,15,19.40
2012,08,26,15,16,19.50
2012,08,26,15,17,19.50
2012,08,26,15,18,19.50
2012,08,26,15,19,19.50
2012,08,26,15,20,19.50
2012,08,26,15,21,19.60
2012,08,26,15,22,19.60
2012,08,26,15,23,19.60
2012,08,26,15,24,19.70
2012,08,26,15,25,19.70
2012,08,26,15,26,19.70
2012,08,26,15,27,19.70
2012,08,26,15,28,19.70
2012,08,26,15,29,19.70
2012,08,26,15,30,19.70
2012,08,26,15,31,19.60
2012,08,26,15,32,19.60
2012,08,26,15,33,19.60
2012,08,26,15,34,19.60
2012,08,26,15,35,19.60
2012,08,26,15,36,19.60
2012,08,26,15,37,19.60
2012,08,26,15,38,19.60
2012,08,26,15,39,19.60
2012,08,26,15,40,19.60
2012,08,26,15,41,19.60
2012,08,26,15,42,19.60
2012,08,26,15,43,19.70
2012,08,26,15,44,19.70
2012,08,26,15,45,19.70
2012,08,26,15,46,19.80
2012,08,26,15,47,19.90
2012,08,26,15,48,19.90
2012,08,26,15,49,20.10
2012,08,26,15,50,20.20
2012,08,26,15,51,20.30
2012,08,26,15,52,20.30
2012,08,26,15,53,20.30
2012,08,26,15,54,20.30
2012,08,26,15,55,20.30
2012,08,26,15,56,20.20
2012,08,26,15,57,20.10
2012,08,26,15,58,20.10
2012,08,26,15,59,20.10
2012,08,26,16,00,20.00
2012,08,26,16,01,19.90
2012,08,26,16,02,19.90
2012,08,26,16,03,20.00
2012,08,26,16,04,20.00
2012,08,26,16,05,20.00
2012,08,26,16,06,20.10
2012,08,26,16,07,20.10
2012,08,26,16,08,20.10
2012,08,26,16,09,20.10
2012,08,26,16,10,20.10
2012,08,26,16,11,20.20
2012,08,26,16,12,20.20
2012,08,26,16,13,20.20
2012,08,26,16,14,20.20
2012,08,26,16,15,20.20
2012,08,26,16,16,20.20
2012,08,26,16,17,20.30
2012,08,26,16,18,20.30
2012,08,26,16,19,20.30
2012,08,26,16,20,20.30
2012,08,26,16,21,20.30
2012,08,26,16,22,20.30
2012,08,26,16,23,20.30
2012,08,26,16,24,20.30
2012,08,26,16,25,20.30
2012,08,26,16,26,20.30
2012,08,26,16,27,20.20
2012,08,26,16,28,20.20
2012,08,26,16,29,20.20
2012,08,26,16,30,20.20
2012,08,26,16,31,20.20
2012,08,26,16,32,20.20
2012,08,26,16,33,20.20
2012,08,26,16,34,20.20
2012,08,26,16,35,20.20
2012,08,26,16,36,20.30
2012,08,26,16,37,20.30
2012,08,26,16,38,20.30
2012,08,26,16,39,20.30
2012,08,26,16,40,20.40
2012,08,26,16,41,20.50
2012,08,26,16,42,20.50
2012,08,26,16,43,20.60
2012,08,26,16,44,20.60
2012,08,26,16,45,20.70
2012,08,26,16,46,20.70
2012,08,26,16,47,20.80
2012,08,26,16,48,20.80
2012,08,26,16,49,20.80
2012,08,26,16,50,20.80
2012,08,26,16,51,20.80
2012,08,26,16,52,20.80
2012,08,26,16,53,20.90
2012,08,26,16,54,20.90
2012,08,26,16,55,20.90
2012,08,26,16,56,20.90
2012,08,26,16,57,20.90
2012,08,26,16,58,20.90
2012,08,26,16,59,20.90
2012,08,26,17,00,20.90
2012,08,26,17,01,20.90
2012,08,26,17,02,20.90
2012,08,26,17,03,20.90
2012,08,26,17,04,21.00
2012,08,26,17,05,21.00
2012,08,26,17,06,21.00
2012,08,26,17,07,21.10
2012,08,26,17,08,21.10
2012,08,26,17,09,21.10
2012,08,26,17,10,21.10
2012,08,26,17,11,21.00
2012,08,26,17,12,21.00
2012,08,26,17,13,21.00
2012,08,26,17,14,21.00
2012,08,26,17,15,20.90
2012,08,26,17,16,20.90
2012,08,26,17,17,20.90
2012,08,26,17,18,20.90
2012,08,26,17,19,20.90